timestamp,gas_concentrations,,corrected_fluxes_and_quality_flags,,,,,,,,,,storage_terms,,,turbulence,,,footprint,,
ISOdate,CO2_1_1_1,H2O_1_1_1,Tau_1_1_1,QcTau_1_1_1,H_1_1_1,QcH_1_1_1,LE_1_1_1, QcLE_1_1_1,Fc_1_1_1, QcFc_1_1_1,E_1_1_1, QcE_1_1_1,Sa_1_1_1,Sw_1_1_1,Sc_1_1_1,ustar_1_1_1,MO_length_1_1_1,ZL_1_1_1,Fetchmax_1_1_1,Fetch70_1_1_1,Fetch90_1_1_1
yyyymmddHHMM,[µmol+1mol_a-1],[mmol+1mol_a-1],[kg+1m-1s-2],[#],[W+1m-2],[#],[W+1m-2],[#],[µmol+1s-1m-2],[#],[mmol+1s-1m-2],[#],[W+1m-2],[W+1m-2],[µmol+1s-1m-2],[m+1s-1],[m],[#],[m],[m],[m]
201301200030,-9999.,1.4257530936551952,0.95651634643477457,0,-21.902436209562385,1,-0.13550172832264157,1,-9999.,-9999.,-2.96254277912907189E-003,1,-9999.,-9999.,-9999.,0.86095332808435032,2450.8642485551159,8.81321762832604043E-003,104.26025029366591,190.62098963816072,285.58497817016490
201301200100,-9999.,1.4611086198833123,1.1541536252949400,0,1.4852627936347487,2,0.25211595309710000,0,-9999.,-9999.,5.51398514955736812E-003,0,9.0450070826960776,1.4001454947246827,-9999.,0.94607424861947509,-47979.556646719437,-4.50191738098873917E-004,101.89663801953390,186.29955256557659,279.11067796649724
201301200130,-9999.,1.4671424748678767,0.95055200504902049,0,-8.4895299255151073,1,0.16025546242850852,0,-9999.,-9999.,3.50504219930574366E-003,0,0.94205436903445150,0.23908724803148659,-9999.,0.85832435220539116,6271.7133367171500,3.44403496147453877E-003,100.31870784702143,183.41459295520710,274.78848276169253
201301200200,-9999.,1.4372222509951074,1.0802417861753701,0,-5.2630407297947981,0,0.12853587141981870,0,-9999.,-9999.,2.81110742112240667E-003,0,-1.7009150026885151,-1.1869409808939313,-9999.,0.91450020669430465,12242.960788866243,1.76427911291221788E-003,106.91725436010827,195.47884047960102,292.86292394696574
201301200230,-9999.,1.3851947731269874,1.2403159844991483,0,-10.865225864916770,0,0.10757022083972792,1,-9999.,-9999.,2.35182917261100941E-003,1,-8.6994033201818297,-2.0689029821866280,-9999.,0.97888883647284508,7277.1274490359165,2.96820416452395642E-003,112.14089920917439,205.02932925977001,307.17129646657281
201301200300,-9999.,1.3376868992943527,0.94418361127896133,0,-4.5257815528038865,0,0.16024880155910737,0,-9999.,-9999.,3.50288752391903933E-003,0,-5.1464278378687593,-1.8924159100864590,-9999.,0.85341616520990904,11582.740192063064,1.86484369344666352E-003,105.55886133218881,192.99526478732864,289.14207499319673
201301200330,-9999.,1.3254769438460019,0.72483504133440380,0,-3.7400247075940576,1,9.21548259716098994E-002,0,-9999.,-9999.,2.01416365793138019E-003,0,-3.4259529561512951,-0.48692114695774563,-9999.,0.74736336920058000,9416.5652826584083,2.29383000612533999E-003,103.71442373199221,189.62304460096803,284.08987465505521
201301200400,-9999.,1.3238644636623309,0.71862904541409589,0,-22.639656669519290,1,-0.11169165560011439,1,-9999.,-9999.,-2.44044893288247093E-003,1,-8.0067069369937816,-6.44262750718205268E-002,-9999.,0.74356042470318806,1532.3798204206091,1.40957220345483362E-002,109.61575517500624,200.41256061192726,300.25453574670860
201301200430,-9999.,1.2846781889329555,0.61276196273281758,0,-16.944791808896209,0,-3.77003651630674966E-002,0,-9999.,-9999.,-8.23537263138289098E-004,0,-6.9914064638521332,-1.5683110118139576,-9999.,0.68611580615507728,1608.9759648443214,1.34246877964332659E-002,101.59401137386084,185.74625453946800,278.28173669928543
201301200500,-9999.,1.2400215015015006,0.61679206150940447,0,-21.538539451667958,0,-0.10053526775700523,0,-9999.,-9999.,-2.19540965390306901E-003,0,-8.8484040343925603,-1.7910416109591283,-9999.,0.68774437775369801,1275.2394665408647,1.69379952289202759E-002,105.30808685825768,192.53676906856623,288.45516485763176
201301200530,-9999.,1.2199257420413068,0.46137982891826229,0,-20.627856518249917,0,-0.14382888675895991,2,-9999.,-9999.,-3.14007958110829391E-003,2,-6.4693486982317170,-0.80734778086517467,-9999.,0.59438532582085302,859.84670375820144,2.51207568809546367E-002,101.25776539249932,185.13148964538368,277.36070686311621
201301200600,-9999.,1.2233133585568385,0.59539460271458400,0,-5.2371081293217463,1,4.74600295801237415E-002,0,-9999.,-9999.,1.03611339466008236E-003,0,-0.96246986697186143,0.13618437595791655,-9999.,0.67501080167802474,4961.9540431420819,4.35312375169080203E-003,105.80043041142794,193.43693010868398,289.80377012654594
201301200630,-9999.,1.1753465570752661,0.37100686013627332,0,-11.969512249649053,0,-5.31002623871655935E-002,0,-9999.,-9999.,-1.15886911220592823E-003,0,-8.9511986849470446,-1.9324846562069338,-9999.,0.53234718470171549,1065.2803333960360,2.02763529212454142E-002,93.371675900316177,170.71320291443021,255.75948598431009
201301200700,-9999.,1.1581616636055276,0.59931326210154823,0,-28.905264514295986,0,-0.17133191571337181,0,-9999.,-9999.,-3.73895601130768513E-003,0,-1.6225408502159795,-0.69292356284795487,-9999.,0.67633326185351128,904.94791121086052,2.38687771223188329E-002,116.90596777632510,213.74139434119385,320.22355750465840
201301200730,-9999.,1.1149444651724516,0.90101820380048092,0,-18.192340345587699,2,-2.61517273504924923E-002,2,-9999.,-9999.,-5.70509477462766124E-004,2,-9.4903588991231462,-1.7468559470542739,-9999.,0.82840142439542064,2643.3255589191285,8.17152466411756248E-003,111.41350933698882,203.69942858431369,305.17886291510706
201301200800,-9999.,1.0003575651504431,0.86897737568290001,0,-2.8320406177252719,1,0.10573594620975318,0,-9999.,-9999.,2.30450331382498841E-003,0,-26.007461609752323,-4.6577208909631089,-9999.,0.81162193203332089,15976.789320734859,1.35196124617899759E-003,112.73885574064083,206.12258450774496,308.80919204522866
201301200830,-9999.,0.95850016673039340,0.82981433754226985,0,-1.4701583973816845,2,6.86853169927357093E-002,0,-9999.,-9999.,1.49640021367289421E-003,0,-10.923880131545147,-1.7055709510107047,-9999.,0.79230509236636038,28638.807054864188,7.54221359801065042E-004,117.95296286470813,215.65563528471472,323.09143925842307
201301200900,-9999.,0.95664672723441413,0.73219219742485031,0,32.504061574156793,0,0.29556548829208074,0,-9999.,-9999.,6.44031663222683747E-003,0,4.4513546913650739,-7.54658175868048176E-002,-9999.,0.74446176920050011,-1074.6310732397997,-2.00999213012520508E-002,113.30115759329213,207.15065163136927,310.34942393477570
201301200930,-9999.,0.97602651105701488,0.77657384294041087,0,51.400151347574422,0,0.37313684042056611,0,-9999.,-9999.,8.13420264756934547E-003,0,12.331398064159197,0.78719883749769082,-9999.,0.76743980051858030,-744.42828807225771,-2.90155550858156031E-002,118.34546590007690,216.37325601579141,324.16656588119434
201301201000,-9999.,1.0147420811067018,0.64982645284279106,0,95.196594700262153,0,0.76593057406371567,0,-9999.,-9999.,1.67074932475691426E-002,0,17.481459704455624,1.5672198572243070,-9999.,0.70301229704445223,-308.94831355120783,-6.99146072419645215E-002,111.16636587962812,203.24757152189537,304.50189869646709
201301201030,-9999.,1.0612849079554687,1.0609671657200659,0,101.66656473138357,0,0.75780958348698635,1,-9999.,-9999.,1.65411546866329681E-002,1,17.981437939092686,1.8777611202753317,-9999.,0.89950885687094828,-606.00494238345664,-3.56432736588678731E-002,125.96865699807940,230.31088063504032,345.04766732856251
201301201100,-9999.,1.1198151809743229,0.97457046561826832,0,102.15879733245349,0,0.88644800715852390,0,-9999.,-9999.,1.93608125347949807E-002,0,16.712128054558335,2.3544837958096743,-9999.,0.86311731001766101,-532.90448330600850,-4.05325920059799588E-002,126.22794283583593,230.78493784143581,345.75789140827618
201301201130,-9999.,1.1273028435517853,0.80513366600061864,0,83.806441418745266,0,0.71257501803435630,0,-9999.,-9999.,1.55694197999965509E-002,0,10.810739678235500,0.30058321060255161,-9999.,0.78516403986750571,-489.00721020914983,-4.41711278464822985E-002,112.09595049604850,204.94714867651908,307.04817497759996
201301201200,-9999.,1.1445522012593221,0.94273478229793473,0,127.44200655322243,0,1.0730892011030728,0,-9999.,-9999.,2.34519003768210027E-002,0,6.3177562637996099,0.69153123239623038,-9999.,0.85008468344330035,-408.07897966959212,-5.29309302270085033E-002,116.49138977926032,212.98341353968897,319.08796414181796
201301201230,-9999.,1.1333797461629505,0.96353443606790956,0,188.65159801014258,0,1.6602804119545860,0,-9999.,-9999.,3.62922641077043015E-002,0,5.6821585456233059,-0.44731206325279410,-9999.,0.85989092673343737,-285.27353416077705,-7.57168030449907742E-002,125.51095152543816,229.47404905337879,343.79394112855402
201301201300,-9999.,1.1081867690466638,1.2061416944782661,0,193.87898067151821,0,1.6534108945045933,0,-9999.,-9999.,3.61413602489136579E-002,0,-0.56058781434255733,-1.0087059976514883,-9999.,0.96205464891882198,-388.72479223731852,-5.55663040571209230E-002,132.90381446932972,242.99056034751587,364.04413807800984
201301201330,-9999.,1.0820137419352382,0.73758278120635390,0,122.30202876804189,0,1.0737796579477494,0,-9999.,-9999.,2.34714955855210780E-002,0,0.11892221536541625,-1.0480310229998868,-9999.,0.75229007094436218,-294.66351693789056,-7.33039509758952185E-002,108.35932426848217,198.11540419671636,296.81297684001765
201301201400,-9999.,1.0745426582951996,0.64189659591716486,0,92.942907720263364,0,0.86594616389761381,1,-9999.,-9999.,1.89260329787179112E-002,1,-3.5773072065087410,-0.29929578686239894,-9999.,0.70168453117348129,-314.58875677583512,-6.86610679331791929E-002,115.85902402728986,211.82724726237461,317.35581637732122
201301201430,-9999.,1.0600530280877760,0.48895313684795433,0,77.216214281729492,0,0.73586505581843797,0,-9999.,-9999.,1.60824478386162005E-002,0,-0.92622495140676131,-0.58050490740231264,-9999.,0.61239743666974000,-251.70535594795152,-8.58146220951552657E-002,107.67336928227168,196.86125970780162,294.93403986057575
201301201500,-9999.,1.0293857986660977,0.40928111960181557,0,68.610754995183100,0,0.54909962032693860,0,-9999.,-9999.,1.19995581954460018E-002,0,-2.5078168948279509,-1.2292749303525348,-9999.,0.56016383536916048,-216.80319680624967,-9.96295272311102237E-002,100.44139497358191,183.63890415161174,275.12454180875841
201301201530,-9999.,1.0533117615685799,0.42770105200922520,0,19.856247780895192,0,0.26196457642511639,0,-9999.,-9999.,5.72261748763698737E-003,0,-10.209310487528809,0.96096678067691543,-9999.,0.57217000176330757,-798.38040616157821,-2.70547721778990405E-002,107.14955924416417,195.90356789749791,293.49924301444406
201301201600,-9999.,1.0753996787871816,0.38509669113193590,0,16.550721240116893,0,0.27386072343933149,0,-9999.,-9999.,5.98114780153880671E-003,0,-6.1460879559161929,0.88833398526015761,-9999.,0.54262404579829104,-817.08728908925139,-2.64353641140054607E-002,109.91629254315887,200.96203877238767,301.07775415910874
201301201630,-9999.,1.0036660715934387,0.54846661286826803,0,-9.6766883889843722,0,6.27976931926376852E-002,0,-9999.,-9999.,1.37102544609854883E-003,0,-9.6727213180719307,-2.8903984536695448,-9999.,0.64707267302686700,2369.8951397167357,9.11432731263450181E-003,122.20694877319227,223.43327826464241,334.74376571446686
201301201700,-9999.,0.97634960956912875,0.32205923398138919,0,-19.504079926856296,0,-6.18605120464699662E-002,0,-9999.,-9999.,-1.35001611517185740E-003,0,-11.175829638332637,-1.1028684528740635,-9999.,0.49544982278255667,527.75202646169305,4.09283127623723889E-002,116.30828849681644,212.64864599822272,318.58642136206845
201301201730,-9999.,0.95757140422374953,0.22214975404851436,0,-22.116378929753637,0,-9.69725849223287834E-002,0,-9999.,-9999.,-2.11503057478259864E-003,0,-16.379711160534324,-0.76042174197997625,-9999.,0.41099020270215081,265.64674403342337,8.13109909500050743E-002,113.02543587374392,206.64654439110299,309.59417942849052
201301201800,-9999.,0.94538070107388816,0.20676516546125320,0,-32.438463900359402,0,-0.17874490859651110,0,-9999.,-9999.,-3.89631072337543903E-003,0,-15.795059656700333,-0.49523196070180886,-9999.,0.39598650853362277,162.01832672206049,0.13331825131766983,112.16189666000048,205.06771929667354,307.22881173743491
201301201830,-9999.,0.93043386530831707,0.28269614105444735,0,-29.053226899287679,0,-0.15330038270805421,1,-9999.,-9999.,-3.34034828901129789E-003,1,-10.948995121170498,-0.60843382215565389,-9999.,0.46264089809222020,288.47632247226699,7.48761625040354623E-002,119.96170987805000,219.32826548210443,328.59370853495744
201301201900,-9999.,0.92092008739412601,0.20347949554377939,0,-28.737167672395252,0,-0.16467890511648686,1,-9999.,-9999.,-3.58713634676384365E-003,1,-8.8696161640326796,-0.38793496201748245,-9999.,0.39223108849180466,177.73150313243073,0.12153163406211379,114.64878981624555,209.61455314018107,314.04079737661516
201301201930,-9999.,0.90182592696750652,0.24220691604104636,0,-33.727895015684766,0,-0.19552522480535550,2,-9999.,-9999.,-4.25760797769993149E-003,2,-9.4265499763244041,-0.78000204978975751,-9999.,0.42761435358311439,196.22786348848811,0.11007611057879751,116.74515909640070,213.44738478699412,319.78307761691184
201301202000,-9999.,0.87305528973700253,0.13984393306974796,0,-20.335443844395549,0,-0.10487524104220165,1,-9999.,-9999.,-2.28295070219316793E-003,1,-8.9463741527945206,-1.1772336770831888,-9999.,0.32470509587221796,142.49323731854764,0.15158614125463787,108.10228298455641,197.64545075058726,296.10890094098608
201301202030,-9999.,0.85827316392832975,0.12655685682729931,0,-24.077819431932966,0,-0.13814510904346272,0,-9999.,-9999.,-3.00637916384537520E-003,0,-7.4162448921604733,-0.60570769738332952,-9999.,0.30871666601982922,103.43004539437918,0.20883680286167441,106.16264250402341,194.09916933557037,290.79592516420877
201301202100,-9999.,0.86093199268711040,0.13658114166969945,0,-24.383368393355326,0,-0.14292146586043566,0,-9999.,-9999.,-3.10987263692792237E-003,0,-4.0598966793119713,0.10899798639934451,-9999.,0.32065898805764931,114.42661619854675,0.18876727039206395,104.50937567360933,191.07647028716204,286.26737118181012
201301202130,-9999.,0.86186919765828707,0.27347144408248064,0,-35.074158611077380,0,-0.22239000878601772,0,-9999.,-9999.,-4.83829053843245344E-003,0,-4.4076955484854041,3.84399535480915780E-002,-9999.,0.45365768290882014,225.20988962305444,9.59105305550881915E-002,113.63524726867290,207.76147411040228,311.26454731479600
201301202200,-9999.,0.86234136986768795,0.55201573799860548,0,-40.637030220490644,0,-0.25384228506290873,0,-9999.,-9999.,-5.52200497824168607E-003,0,-2.8231512022850738,1.93693609864445809E-002,-9999.,0.64452040332505911,557.26315288151545,3.87608617011729190E-002,112.53842933611185,205.75614111754282,308.26019307197748
201301202230,-9999.,0.84862494353572548,0.40554301564705136,0,-31.605770548451293,0,-0.20438354141907886,1,-9999.,-9999.,-4.44544803848659267E-003,1,-4.0718902459650446,-0.56299130975635625,-9999.,0.55231515232695694,450.81994429135085,4.79126983477922500E-002,104.87707868236113,191.74874866002006,287.27456668951038
201301202300,-9999.,0.82969704495181607,0.48326611287459020,0,-26.993228764524524,0,-0.12067506237157266,0,-9999.,-9999.,-2.62470131416005399E-003,0,-0.46770750618021850,-0.77670124761039794,-9999.,0.60300137034044088,686.75551919247630,3.14522408577049828E-002,113.00287649571243,206.60529865311682,309.53238579702969
201301202330,-9999.,0.81661923570489070,0.56465580292116468,0,-32.036979888453857,0,-0.13600930811284026,0,-9999.,-9999.,-2.95831605079566662E-003,0,0.87455207470223706,-0.53648500005295818,-9999.,0.65188902425740991,731.02086823983689,2.95477200972508597E-002,119.13161369529386,217.81058491442744,326.31994648696866
201301210000,-9999.,0.82190140481922214,0.53100451802982951,0,-15.368510081603626,0,-2.59252895610310244E-002,0,-9999.,-9999.,-5.63959391851776991E-004,0,3.1061723825990657,0.21649756332724626,-9999.,0.63240909989697636,1391.0175120533027,1.55282013438608011E-002,112.90575662829750,206.42773256068929,309.26635943379483
